Location: Asheville, NC
(35.6000°N, 82.5500°W)
Time: 00:14:02
(UTC-04:00)

Vanguard 2 - Pass Details

Date: 13 March 2018
Orbit: 553 x 2939 km, 32.9° (Epoch: 22 June)

Event Time Altitude Azimuth Distance (km) Brightness Sun altitude
Rises 09:48:10 0° 206° (SSW) 4,967 11.6 23.8°
Reaches altitude 10° 09:51:33 10° 196° (SSW) 4,300 11.5 24.4°
Maximum altitude 10:02:11 33° 138° (SE) 3,596 12.5 26.4°
Drops below altitude 10° 10:16:12 10° 84° (E) 5,717 13.0 29.0°
Sets 10:21:31 0° 76° (ENE) 6,794 13.0 29.9°
